FW8891 Weather Reports


Display with metric or nautical units.
time (UTC)temp
F
wind
direction
speed
MPH
gust
MPH
rain 1hr
in
rain 24hr
in
rain mn
in
humidity
%
barometer
mb
20260509113100 72 309 1.0 3.0 0.00 0.00 0.00 24 1010.1
20260509112600 72 279 1.0 3.0 0.00 0.00 0.00 24 1010.1
20260509112100 72 279 2.0 3.0 0.00 0.00 0.00 25 1010.1
20260509111558 72 271 1.0 3.0 0.00 0.00 0.00 24 1010.0
20260509111100 72 267 1.0 3.0 0.00 0.00 0.00 24 1010.1
20260509110602 72 188 1.0 2.0 0.00 0.00 0.00 24 1010.0
20260509110100 72 306 0.0 2.0 0.00 0.00 0.00 24 1009.9
20260509105601 72 307 0.0 3.0 0.00 0.00 0.00 24 1009.9
20260509105100 72 302 1.0 5.0 0.00 0.00 0.00 24 1009.8
20260509104558 72 307 3.0 5.0 0.00 0.00 0.00 23 1009.9
20260509104100 72 332 2.0 5.0 0.00 0.00 0.00 23 1009.8
20260509103559 72 290 2.0 3.0 0.00 0.00 0.00 25 1009.9
20260509103100 72 258 1.0 3.0 0.00 0.00 0.00 23 1009.8
20260509102600 72 256 1.0 3.0 0.00 0.00 0.00 24 1009.8
20260509102059 72 241 1.0 4.0 0.00 0.00 0.00 23 1009.7
20260509101605 72 266 1.0 4.0 0.00 0.00 0.00 23 1009.8
20260509101100 72 269 2.0 4.0 0.00 0.00 0.00 23 1009.8
20260509100600 72 259 1.0 2.0 0.00 0.00 0.00 24 1009.8
20260509100058 72 258 1.0 2.0 0.00 0.00 0.00 24 1009.8
20260509095600 72 266 0.0 2.0 0.00 0.00 0.00 23 1009.8
20260509095100 72 0 0.0 0.0 0.00 0.00 0.00 24 1009.8
20260509094600 72 0 0.0 0.0 0.00 0.00 0.00 23 1009.8
20260509094059 73 0 0.0 0.0 0.00 0.00 0.00 23 1009.8
20260509093559 74 0 0.0 3.0 0.00 0.00 0.00 22 1009.9
20260509093103 74 0 0.0 5.0 0.00 0.00 0.00 22 1009.8
20260509092602 74 260 2.0 5.0 0.00 0.00 0.00 22 1009.8
20260509092059 74 255 2.0 3.0 0.00 0.00 0.00 22 1009.9
20260509091559 74 261 1.0 2.0 0.00 0.00 0.00 22 1009.8
20260509091059 74 285 1.0 3.0 0.00 0.00 0.00 22 1009.7
20260509090559 75 297 1.0 3.0 0.00 0.00 0.00 21 1009.7
20260509090059 75 299 1.0 3.0 0.00 0.00 0.00 21 1009.8
20260509085600 75 266 1.0 3.0 0.00 0.00 0.00 21 1009.8
20260509085102 76 297 1.0 4.0 0.00 0.00 0.00 21 1009.9
20260509084601 76 289 2.0 4.0 0.00 0.00 0.00 21 1009.7
20260509084100 76 291 2.0 4.0 0.00 0.00 0.00 22 1009.7
20260509083559 76 270 2.0 4.0 0.00 0.00 0.00 21 1009.7
20260509083058 77 271 2.0 4.0 0.00 0.00 0.00 21 1009.7
20260509082559 77 271 2.0 4.0 0.00 0.00 0.00 20 1009.7
20260509082059 77 293 1.0 4.0 0.00 0.00 0.00 21 1009.7
20260509081559 78 304 1.0 3.0 0.00 0.00 0.00 20 1009.6
20260509081100 78 306 1.0 3.0 0.00 0.00 0.00 21 1009.6
20260509080559 78 295 2.0 4.0 0.00 0.00 0.00 20 1009.6
20260509080057 79 287 2.0 4.0 0.00 0.00 0.00 20 1009.6
20260509075559 79 292 2.0 4.0 0.00 0.00 0.00 20 1009.7
20260509075059 79 263 2.0 4.0 0.00 0.00 0.00 19 1009.7
20260509074607 80 290 2.0 4.0 0.00 0.00 0.00 19 1009.8
20260509074059 80 299 2.0 4.0 0.00 0.00 0.00 19 1009.7
20260509073559 81 309 2.0 4.0 0.00 0.00 0.00 19 1009.8
20260509073102 81 259 1.0 4.0 0.00 0.00 0.00 19 1009.7
20260509072559 81 265 2.0 6.0 0.00 0.00 0.00 18 1009.7
20260509072059 82 250 2.0 6.0 0.00 0.00 0.00 18 1009.7
20260509071608 82 295 2.0 5.0 0.00 0.00 0.00 18 1009.7
20260509071101 82 311 2.0 5.0 0.00 0.00 0.00 18 1009.6
20260509070600 82 304 2.0 5.0 0.00 0.00 0.00 18 1009.7
20260509070100 83 286 2.0 6.0 0.00 0.00 0.00 18 1009.7
20260509065601 83 307 2.0 6.0 0.00 0.00 0.00 17 1009.7
20260509065059 83 314 3.0 6.0 0.00 0.00 0.00 17 1009.7
20260509064618 83 271 3.0 5.0 0.00 0.00 0.00 18 1009.7
20260509064059 82 302 2.0 4.0 0.00 0.00 0.00 18 1009.7
20260509063559 82 232 2.0 4.0 0.00 0.00 0.00 18 1009.6
20260509063058 82 304 2.0 4.0 0.00 0.00 0.00 17 1009.6
20260509062559 82 285 2.0 5.0 0.00 0.00 0.00 18 1009.6
20260509062115 82 299 2.0 5.0 0.00 0.00 0.00 18 1009.5
20260509061624 82 295 2.0 5.0 0.00 0.00 0.00 18 1009.5
20260509061100 82 297 2.0 5.0 0.00 0.00 0.00 18 1009.5
20260509060559 82 277 3.0 9.0 0.00 0.00 0.00 18 1009.4
20260509060111 82 254 3.0 9.0 0.00 0.00 0.00 18 1009.5
20260509055601 82 231 3.0 5.0 0.00 0.00 0.00 17 1009.6
20260509055059 83 274 2.0 4.0 0.00 0.00 0.00 18 1009.3
20260509054559 83 270 2.0 4.0 0.00 0.00 0.00 17 1009.3
20260509054059 83 307 2.0 3.0 0.00 0.00 0.00 17 1009.3
20260509053559 82 288 0.0 2.0 0.00 0.00 0.00 18 1009.2
20260509053059 82 297 1.0 3.0 0.00 0.00 0.00 18 1009.3
20260509052559 83 283 1.0 3.0 0.00 0.00 0.00 19 1009.3
20260509052101 83 269 1.0 3.0 0.00 0.00 0.00 18 1009.4
20260509051600 83 283 2.0 4.0 0.00 0.00 0.00 17 1009.4
20260509051059 84 311 2.0 4.0 0.00 0.00 0.00 17 1009.4
20260509050602 84 295 2.0 4.0 0.00 0.00 0.00 17 1009.4
20260509050108 85 277 2.0 3.0 0.00 0.00 0.00 18 1009.4
20260509045559 85 291 1.0 3.0 0.00 0.00 0.00 17 1009.3
20260509045101 85 278 1.0 3.0 0.00 0.00 0.00 17 1009.3
20260509044600 86 257 1.0 3.0 0.00 0.00 0.00 17 1009.3
20260509044101 86 284 1.0 3.0 0.00 0.00 0.00 17 1009.3
20260509043600 86 243 1.0 3.0 0.00 0.00 0.00 16 1009.2
20260509043105 87 279 2.0 4.0 0.00 0.00 0.00 16 1009.2
20260509042559 87 281 2.0 5.0 0.00 0.00 0.00 16 1009.1
20260509042101 88 257 2.0 7.0 0.00 0.00 0.00 15 1009.0
20260509041601 88 264 2.0 7.0 0.00 0.00 0.00 15 1009.0
20260509041101 89 245 4.0 7.0 0.00 0.00 0.00 15 1009.0
20260509040559 89 299 3.0 6.0 0.00 0.00 0.00 15 1008.9
20260509040057 90 297 3.0 6.0 0.00 0.00 0.00 15 1008.8
20260509035600 90 250 3.0 6.0 0.00 0.00 0.00 14 1008.8
20260509035100 90 262 4.0 6.0 0.00 0.00 0.00 14 1008.7
20260509034558 91 241 4.0 7.0 0.00 0.00 0.00 14 1008.6
20260509034101 91 278 4.0 8.0 0.00 0.00 0.00 14 1008.6
20260509033559 91 264 4.0 8.0 0.00 0.00 0.00 14 1008.6
20260509033059 92 249 4.0 8.0 0.00 0.00 0.00 14 1008.5
20260509032559 92 231 4.0 8.0 0.00 0.00 0.00 14 1008.5
20260509032100 92 227 4.0 7.0 0.00 0.00 0.00 14 1008.4
20260509031601 92 251 3.0 8.0 0.00 0.00 0.00 14 1008.3
20260509031058 93 278 5.0 9.0 0.00 0.00 0.00 14 1008.3
20260509030558 93 264 4.0 9.0 0.00 0.00 0.00 14 1008.2
20260509030101 93 200 4.0 7.0 0.00 0.00 0.00 14 1008.2
20260509025601 93 249 4.0 7.0 0.00 0.00 0.00 14 1008.1
20260509025058 94 265 3.0 9.0 0.00 0.00 0.00 14 1008.1
20260509024558 94 264 4.0 10.0 0.00 0.00 0.00 14 1008.1
20260509024058 95 276 6.0 10.0 0.00 0.00 0.00 13 1008.0
20260509023600 95 205 5.0 10.0 0.00 0.00 0.00 13 1007.9
20260509023101 95 219 5.0 11.0 0.00 0.00 0.00 13 1007.8
20260509022558 95 227 6.0 11.0 0.00 0.00 0.00 13 1007.8
20260509022058 96 240 5.0 11.0 0.00 0.00 0.00 13 1007.7
20260509021601 96 231 4.0 11.0 0.00 0.00 0.00 13 1007.7
20260509021059 97 312 7.0 11.0 0.00 0.00 0.00 13 1007.6
20260509020557 97 271 6.0 11.0 0.00 0.00 0.00 13 1007.6
20260509020058 98 249 6.0 13.0 0.00 0.00 0.00 13 1007.5
20260509015601 98 196 7.0 13.0 0.00 0.00 0.00 13 1007.4
20260509015101 98 232 6.0 11.0 0.00 0.00 0.00 13 1007.4
20260509014559 99 276 5.0 9.0 0.00 0.00 0.00 13 1007.4
20260509014057 99 268 5.0 9.0 0.00 0.00 0.00 13 1007.3
20260509013558 99 262 4.0 11.0 0.00 0.00 0.00 13 1007.4
20260509013058 99 302 5.0 11.0 0.00 0.00 0.00 13 1007.4
20260509012558 100 271 4.0 14.0 0.00 0.00 0.00 13 1007.4
20260509012101 100 307 6.0 14.0 0.00 0.00 0.00 13 1007.4
20260509011601 100 250 5.0 11.0 0.00 0.00 0.00 13 1007.4
20260509011058 100 280 7.0 11.0 0.00 0.00 0.00 13 1007.4
20260509010557 100 345 4.0 7.0 0.00 0.00 0.00 13 1007.4
20260509010107 101 250 4.0 11.0 0.00 0.00 0.00 12 1007.4
20260509005558 100 240 7.0 13.0 0.00 0.00 0.00 13 1007.5
20260509005101 101 271 6.0 13.0 0.00 0.00 0.00 13 1007.5
20260509004623 101 218 6.0 10.0 0.00 0.00 0.00 13 1007.5
20260509004057 101 228 5.0 12.0 0.00 0.00 0.00 13 1007.5
20260509003604 101 269 6.0 12.0 0.00 0.00 0.00 13 1007.5
20260509003110 101 259 6.0 14.0 0.00 0.00 0.00 12 1007.6
20260509002558 101 83 5.0 14.0 0.00 0.00 0.00 13 1007.6
20260509002058 101 247 9.0 14.0 0.00 0.00 0.00 13 1007.6
20260509001603 102 226 7.0 13.0 0.00 0.00 0.00 13 1007.5
20260509001059 101 262 3.0 12.0 0.00 0.00 0.00 13 1007.6
20260509000559 101 199 6.0 12.0 0.00 0.00 0.00 13 1007.7
20260509000059 102 207 4.0 10.0 0.00 0.00 0.00 13 1007.8
20260508235558 102 165 5.0 9.0 0.00 0.00 0.00 13 1007.7
20260508235101 102 242 4.0 12.0 0.00 0.00 0.00 13 1007.8
20260508234605 101 221 6.0 12.0 0.00 0.00 0.00 13 1007.7
20260508234100 102 279 6.0 15.0 0.00 0.00 0.00 13 1007.9
20260508233559 102 198 9.0 15.0 0.00 0.00 0.00 13 1008.0
20260508233057 102 262 5.0 12.0 0.00 0.00 0.00 13 1008.0
20260508232558 101 146 5.0 12.0 0.00 0.00 0.00 14 1008.0
20260508232058 102 226 6.0 11.0 0.00 0.00 0.00 13 1008.1
20260508231558 102 250 4.0 11.0 0.00 0.00 0.00 14 1008.2
20260508231100 101 227 8.0 15.0 0.00 0.00 0.00 14 1008.2
20260508230600 102 255 6.0 15.0 0.00 0.00 0.00 14 1008.2
20260508230059 102 182 6.0 11.0 0.00 0.00 0.00 14 1008.3
20260508225558 102 252 5.0 9.0 0.00 0.00 0.00 14 1008.4
20260508225057 101 297 5.0 12.0 0.00 0.00 0.00 14 1008.5
20260508224600 101 200 4.0 12.0 0.00 0.00 0.00 14 1008.5
20260508224100 101 221 7.0 12.0 0.00 0.00 0.00 15 1008.6
20260508223558 102 248 2.0 10.0 0.00 0.00 0.00 15 1008.6
20260508223057 101 192 4.0 10.0 0.00 0.00 0.00 15 1008.8
20260508222557 101 271 4.0 13.0 0.00 0.00 0.00 15 1008.9
20260508222057 100 236 6.0 16.0 0.00 0.00 0.00 16 1009.0
20260508221558 100 238 7.0 16.0 0.00 0.00 0.00 15 1009.1
20260508221058 100 253 6.0 11.0 0.00 0.00 0.00 16 1009.1
20260508220559 100 236 6.0 11.0 0.00 0.00 0.00 15 1009.3
20260508220059 100 225 4.0 12.0 0.00 0.00 0.00 16 1009.4
20260508215558 100 248 7.0 14.0 0.00 0.00 0.00 16 1009.5
20260508215058 100 233 6.0 14.0 0.00 0.00 0.00 16 1009.5
20260508214607 100 267 5.0 11.0 0.00 0.00 0.00 15 1009.8
20260508214059 99 263 4.0 11.0 0.00 0.00 0.00 16 1009.9
20260508213558 99 269 7.0 11.0 0.00 0.00 0.00 15 1010.0
20260508213101 99 259 4.0 11.0 0.00 0.00 0.00 16 1010.0
20260508212558 99 256 4.0 11.0 0.00 0.00 0.00 16 1010.2
20260508212057 99 163 3.0 13.0 0.00 0.00 0.00 17 1010.3
20260508211558 98 212 7.0 13.0 0.00 0.00 0.00 17 1010.4
20260508211058 98 243 5.0 9.0 0.00 0.00 0.00 17 1010.6
20260508210602 98 297 5.0 9.0 0.00 0.00 0.00 17 1010.7
20260508210059 98 137 5.0 9.0 0.00 0.00 0.00 19 1010.8
20260508205558 97 155 4.0 15.0 0.00 0.00 0.00 19 1010.8
20260508205058 97 136 6.0 15.0 0.00 0.00 0.00 18 1010.8
20260508204602 98 222 5.0 9.0 0.00 0.00 0.00 18 1010.9
20260508204058 98 177 4.0 10.0 0.00 0.00 0.00 18 1011.0
20260508203601 98 203 6.0 10.0 0.00 0.00 0.00 19 1011.0
20260508202558 97 181 4.0 11.0 0.00 0.00 0.00 18 1011.2
20260508202101 97 83 4.0 8.0 0.00 0.00 0.00 18 1011.2
20260508201600 96 75 2.0 7.0 0.00 0.00 0.00 18 1011.2
20260508201059 97 127 3.0 7.0 0.00 0.00 0.00 17 1011.4
20260508200559 96 242 2.0 6.0 0.00 0.00 0.00 18 1011.5
20260508200101 96 155 2.0 9.0 0.00 0.00 0.00 18 1011.6
20260508195558 96 263 3.0 11.0 0.00 0.00 0.00 17 1011.7
20260508195103 96 170 6.0 11.0 0.00 0.00 0.00 18 1011.7
20260508194600 96 205 4.0 11.0 0.00 0.00 0.00 18 1011.7
20260508194059 95 176 3.0 8.0 0.00 0.00 0.00 19 1011.8
20260508193559 94 219 1.0 8.0 0.00 0.00 0.00 19 1011.9
20260508193119 94 178 4.0 8.0 0.00 0.00 0.00 18 1012.0
20260508192600 94 228 2.0 6.0 0.00 0.00 0.00 19 1012.0
20260508192103 93 218 2.0 7.0 0.00 0.00 0.00 19 1012.1
20260508191603 94 108 3.0 7.0 0.00 0.00 0.00 18 1012.2
20260508191101 93 251 3.0 7.0 0.00 0.00 0.00 18 1012.3
20260508190600 93 150 3.0 9.0 0.00 0.00 0.00 18 1012.3
20260508190113 92 213 5.0 9.0 0.00 0.00 0.00 18 1012.4
20260508185603 92 210 4.0 8.0 0.00 0.00 0.00 20 1012.4
20260508185101 92 95 2.0 6.0 0.00 0.00 0.00 20 1012.5
20260508184604 91 105 2.0 6.0 0.00 0.00 0.00 20 1012.5
20260508184100 91 141 3.0 6.0 0.00 0.00 0.00 18 1012.6
20260508183600 91 191 3.0 5.0 0.00 0.00 0.00 20 1012.7
20260508183115 90 0 2.0 6.0 0.00 0.00 0.00 20 1012.7
20260508182601 90 113 2.0 6.0 0.00 0.00 0.00 20 1012.9
20260508182100 91 110 2.0 6.0 0.00 0.00 0.00 19 1012.9
20260508181600 90 165 3.0 6.0 0.00 0.00 0.00 20 1013.0
20260508181104 90 170 2.0 6.0 0.00 0.00 0.00 21 1013.0
20260508180601 89 106 1.0 6.0 0.00 0.00 0.00 22 1013.0
20260508180110 89 106 4.0 7.0 0.00 0.00 0.00 23 1013.2
20260508175558 89 95 3.0 7.0 0.00 0.00 0.00 22 1013.3
20260508175058 89 117 2.0 7.0 0.00 0.00 0.00 23 1013.3
20260508174614 88 127 1.0 5.0 0.00 0.00 0.00 22 1013.4
20260508174105 87 193 2.0 5.0 0.00 0.00 0.00 24 1013.4
20260508173558 86 226 2.0 6.0 0.00 0.00 0.00 25 1013.5
20260508173101 86 126 3.0 6.0 0.00 0.00 0.00 24 1013.4
20260508172558 87 153 2.0 4.0 0.00 0.00 0.00 24 1013.4
20260508172058 86 162 2.0 6.0 0.00 0.00 0.00 24 1013.4
20260508171601 85 118 3.0 8.0 0.00 0.00 0.00 25 1013.5
20260508171100 85 150 4.0 8.0 0.00 0.00 0.00 26 1013.6
20260508170557 85 126 2.0 7.0 0.00 0.00 0.00 25 1013.5
20260508170107 85 115 2.0 7.0 0.00 0.00 0.00 25 1013.6
20260508165558 85 105 4.0 7.0 0.00 0.00 0.00 25 1013.6
20260508165058 85 107 2.0 4.0 0.00 0.00 0.00 24 1013.6
20260508164600 85 149 1.0 5.0 0.00 0.00 0.00 26 1013.6
20260508164058 84 152 1.0 6.0 0.00 0.00 0.00 25 1013.6
20260508163601 84 171 2.0 6.0 0.00 0.00 0.00 25 1013.7
20260508163058 83 99 2.0 6.0 0.00 0.00 0.00 26 1013.6
20260508162558 83 109 2.0 6.0 0.00 0.00 0.00 26 1013.7
20260508162058 83 105 3.0 6.0 0.00 0.00 0.00 25 1013.7
20260508161606 83 108 2.0 5.0 0.00 0.00 0.00 26 1013.7
20260508161058 82 236 2.0 5.0 0.00 0.00 0.00 25 1013.7
20260508160559 82 92 2.0 5.0 0.00 0.00 0.00 26 1013.8
20260508160056 82 142 2.0 5.0 0.00 0.00 0.00 25 1013.7
20260508155558 83 125 2.0 4.0 0.00 0.00 0.00 24 1013.7
20260508155057 83 84 0.0 3.0 0.00 0.00 0.00 25 1013.8
20260508154558 83 75 1.0 3.0 0.00 0.00 0.00 25 1013.7
20260508154058 82 132 0.0 4.0 0.00 0.00 0.00 26 1013.8
20260508153558 82 123 0.0 4.0 0.00 0.00 0.00 26 1013.8
20260508153100 82 122 0.0 3.0 0.00 0.00 0.00 26 1013.8
20260508152557 80 155 0.0 4.0 0.00 0.00 0.00 27 1013.9
20260508152058 80 129 2.0 4.0 0.00 0.00 0.00 27 1013.9
20260508151559 80 0 1.0 4.0 0.00 0.00 0.00 28 1013.9
20260508151058 80 125 2.0 4.0 0.00 0.00 0.00 27 1013.9
20260508150557 79 105 0.0 4.0 0.00 0.00 0.00 27 1013.9
20260508150059 79 77 1.0 3.0 0.00 0.00 0.00 27 1013.8
20260508145558 78 107 1.0 3.0 0.00 0.00 0.00 27 1013.9
20260508145058 78 84 1.0 5.0 0.00 0.00 0.00 28 1013.9
20260508144602 77 72 2.0 5.0 0.00 0.00 0.00 28 1013.8
20260508144101 77 51 3.0 5.0 0.00 0.00 0.00 28 1013.7
20260508143559 77 51 2.0 5.0 0.00 0.00 0.00 28 1013.7
20260508143100 76 60 3.0 5.0 0.00 0.00 0.00 29 1013.7
20260508142559 76 72 2.0 6.0 0.00 0.00 0.00 29 1013.6
20260508142058 75 58 3.0 6.0 0.00 0.00 0.00 29 1013.7
20260508141611 76 69 2.0 4.0 0.00 0.00 0.00 29 1013.7
20260508141059 75 66 1.0 3.0 0.00 0.00 0.00 29 1013.5
20260508140558 75 348 0.0 4.0 0.00 0.00 0.00 29 1013.6
20260508140103 74 71 2.0 4.0 0.00 0.00 0.00 29 1013.5
20260508135558 73 67 2.0 5.0 0.00 0.00 0.00 29 1013.5
20260508135057 72 67 2.0 5.0 0.00 0.00 0.00 29 1013.4
20260508134601 72 67 2.0 4.0 0.00 0.00 0.00 29 1013.3
20260508134058 71 73 2.0 4.0 0.00 0.00 0.00 29 1013.2
20260508133558 71 58 2.0 4.0 0.00 0.00 0.00 29 1013.2
20260508133103 70 65 0.0 2.0 0.00 0.00 0.00 29 1013.1
20260508132557 70 0 0.0 2.0 0.00 0.00 0.00 29 1013.0
20260508132057 69 52 0.0 2.0 0.00 0.00 0.00 29 1013.0
20260508131608 68 53 1.0 3.0 0.00 0.00 0.00 30 1013.0
20260508131059 67 0 0.0 3.0 0.00 0.00 0.00 31 1013.0
20260508130559 65 1 0.0 3.0 0.00 0.00 0.00 32 1013.0
20260508125559 64 0 0.0 1.0 0.00 0.00 0.00 31 1012.7
20260508125058 63 30 0.0 1.0 0.00 0.00 0.00 31 1012.7
20260508124600 63 0 0.0 0.0 0.00 0.00 0.00 31 1012.7
20260508124058 63 0 0.0 0.0 0.00 0.00 0.00 29 1012.4
20260508123558 64 0 0.0 1.0 0.00 0.00 0.00 29 1012.4
20260508123117 64 0 0.0 2.0 0.00 0.00 0.00 28 1012.3
20260508122557 64 0 0.0 2.0 0.00 0.00 0.00 28 1012.2
20260508122058 64 47 0.0 1.0 0.00 0.00 0.00 28 1012.2
20260508121608 64 0 0.0 1.0 0.00 0.00 0.00 27 1012.1
20260508121057 63 0 0.0 0.0 0.00 0.00 0.00 28 1012.2
20260508120558 63 0 0.0 0.0 0.00 0.00 0.00 27 1012.2
20260508120110 63 0 0.0 0.0 0.00 0.00 0.00 27 1012.1
20260508115559 63 0 0.0 0.0 0.00 0.00 0.00 27 1012.1
20260508115058 64 0 0.0 0.0 0.00 0.00 0.00 27 1011.9
20260508114602 64 0 0.0 1.0 0.00 0.00 0.00 26 1011.9
20260508114102 65 0 0.0 1.0 0.00 0.00 0.00 25 1011.9
20260508113559 65 0 0.0 2.0 0.00 0.00 0.00 25 1011.8